Time,TemperatureF,DewpointF,PressureIn,WindDirection,WindDirectionDegrees,WindSpeedMPH,WindSpeedGustMPH,Humidity,HourlyPrecipIn,Conditions,Clouds,dailyrainin,SolarRadiationWatts/m^2,SoftwareType,DateUTC
2013-04-05 00:03:00,35.0,6.0,-100.00,South,189,7.0,12.0,29,0.00,,,0.00,0.000000,,2013-04-05 04:03:00,
2013-04-05 00:33:00,34.0,7.0,-100.00,SSW,195,6.0,10.0,31,0.00,,,0.00,0.000000,,2013-04-05 04:33:00,
2013-04-05 00:42:00,34.0,7.0,-100.00,SSW,195,6.0,10.0,31,0.00,,,0.00,0.000000,,2013-04-05 04:42:00,
2013-04-05 00:52:00,34.0,7.0,-100.00,SSW,195,6.0,10.0,31,0.00,,,0.00,0.000000,,2013-04-05 04:52:00,
2013-04-05 01:02:00,34.0,7.0,-100.00,SSW,195,6.0,10.0,31,0.00,,,0.00,0.000000,,2013-04-05 05:02:00,
2013-04-05 01:32:00,33.0,8.0,-100.00,SSW,212,6.0,10.0,34,0.00,,,0.00,0.000000,,2013-04-05 05:32:00,
2013-04-05 01:42:00,33.0,8.0,-100.00,SSW,212,6.0,10.0,34,0.00,,,0.00,0.000000,,2013-04-05 05:42:00,
2013-04-05 01:53:00,33.0,8.0,-100.00,SSW,212,6.0,10.0,34,0.00,,,0.00,0.000000,,2013-04-05 05:53:00,
2013-04-05 02:02:00,33.0,8.0,-100.00,SSW,212,6.0,10.0,34,0.00,,,0.00,0.000000,,2013-04-05 06:02:00,
2013-04-05 03:32:00,33.0,12.0,-100.00,WSW,239,4.0,7.0,42,-99.99,,,0.00,0.000000,,2013-04-05 07:32:00,
2013-04-05 03:42:00,33.0,12.0,-100.00,WSW,239,4.0,7.0,42,-99.99,,,0.00,0.000000,,2013-04-05 07:42:00,
2013-04-05 03:53:00,33.0,12.0,-100.00,WSW,239,4.0,7.0,42,-99.99,,,0.00,0.000000,,2013-04-05 07:53:00,
2013-04-05 04:03:00,33.0,12.0,-100.00,WSW,239,4.0,7.0,42,-99.99,,,0.00,0.000000,,2013-04-05 08:03:00,
2013-04-05 04:33:00,35.0,13.0,-100.00,WNW,284,5.0,9.0,40,0.00,,,0.00,0.000000,,2013-04-05 08:33:00,
2013-04-05 04:43:00,35.0,13.0,-100.00,WNW,284,5.0,9.0,40,0.00,,,0.00,0.000000,,2013-04-05 08:43:00,
2013-04-05 04:52:00,35.0,13.0,-100.00,WNW,284,5.0,9.0,40,0.00,,,0.00,0.000000,,2013-04-05 08:52:00,
2013-04-05 05:02:00,35.0,13.0,-100.00,WNW,284,5.0,9.0,40,0.00,,,0.00,0.000000,,2013-04-05 09:02:00,
2013-04-05 06:33:00,33.0,11.0,-100.00,WNW,292,5.0,9.0,40,-99.99,,,0.00,0.000000,,2013-04-05 10:33:00,
2013-04-05 06:43:00,33.0,11.0,-100.00,WNW,292,5.0,9.0,40,-99.99,,,0.00,0.000000,,2013-04-05 10:43:00,
2013-04-05 06:53:00,33.0,11.0,-100.00,WNW,292,5.0,9.0,40,-99.99,,,0.00,0.000000,,2013-04-05 10:53:00,
2013-04-05 07:03:00,33.0,11.0,-100.00,WNW,292,5.0,9.0,40,-99.99,,,0.00,0.000000,,2013-04-05 11:03:00,
2013-04-05 07:33:00,33.0,11.0,-100.00,WNW,302,5.0,11.0,39,0.00,,,0.00,4.000000,,2013-04-05 11:33:00,
2013-04-05 07:42:00,33.0,11.0,-100.00,WNW,302,5.0,11.0,39,0.00,,,0.00,4.000000,,2013-04-05 11:42:00,
2013-04-05 07:52:00,33.0,11.0,-100.00,WNW,302,5.0,11.0,39,0.00,,,0.00,4.000000,,2013-04-05 11:52:00,
2013-04-05 08:02:00,33.0,11.0,-100.00,WNW,302,5.0,11.0,39,0.00,,,0.00,4.000000,,2013-04-05 12:02:00,
2013-04-05 08:32:00,37.0,13.0,-100.00,WNW,298,4.0,11.0,37,0.00,,,0.00,136.000000,,2013-04-05 12:32:00,
2013-04-05 08:42:00,37.0,13.0,-100.00,WNW,298,4.0,11.0,37,0.00,,,0.00,136.000000,,2013-04-05 12:42:00,
2013-04-05 08:52:00,37.0,13.0,-100.00,WNW,298,4.0,11.0,37,0.00,,,0.00,136.000000,,2013-04-05 12:52:00,
2013-04-05 09:02:00,37.0,13.0,-100.00,WNW,298,4.0,11.0,37,0.00,,,0.00,136.000000,,2013-04-05 13:02:00,
2013-04-05 09:32:00,40.0,14.0,-100.00,NNW,339,5.0,11.0,34,0.00,,,0.00,313.000000,,2013-04-05 13:32:00,
2013-04-05 09:43:00,40.0,14.0,-100.00,NNW,339,5.0,11.0,34,0.00,,,0.00,313.000000,,2013-04-05 13:43:00,
2013-04-05 09:53:00,40.0,14.0,-100.00,NNW,339,5.0,11.0,34,0.00,,,0.00,313.000000,,2013-04-05 13:53:00,
2013-04-05 10:03:00,40.0,14.0,-100.00,NNW,339,5.0,11.0,34,0.00,,,0.00,313.000000,,2013-04-05 14:03:00,
2013-04-05 10:37:00,43.0,18.0,-100.00,North,352,7.0,17.0,36,0.00,,,0.00,527.000000,,2013-04-05 14:37:00,
2013-04-05 10:43:00,43.0,18.0,-100.00,North,352,7.0,17.0,36,0.00,,,0.00,527.000000,,2013-04-05 14:43:00,
2013-04-05 10:54:00,43.0,18.0,-100.00,North,352,7.0,17.0,36,0.00,,,0.00,527.000000,,2013-04-05 14:54:00,
2013-04-05 11:02:00,43.0,18.0,-100.00,North,352,7.0,17.0,36,0.00,,,0.00,527.000000,,2013-04-05 15:02:00,
2013-04-05 11:34:00,46.0,22.0,-100.00,North,355,8.0,15.0,38,0.00,,,0.00,688.000000,,2013-04-05 15:34:00,
2013-04-05 11:43:00,46.0,22.0,-100.00,North,355,8.0,15.0,38,0.00,,,0.00,688.000000,,2013-04-05 15:43:00,
2013-04-05 11:55:00,46.0,22.0,-100.00,North,355,8.0,15.0,38,0.00,,,0.00,688.000000,,2013-04-05 15:55:00,
2013-04-05 12:03:00,46.0,22.0,-100.00,North,355,8.0,15.0,38,0.00,,,0.00,688.000000,,2013-04-05 16:03:00,
2013-04-05 12:33:00,47.0,21.0,-100.00,NNW,346,9.0,18.0,36,0.00,,,0.00,801.000000,,2013-04-05 16:33:00,
2013-04-05 12:43:00,47.0,21.0,-100.00,NNW,346,9.0,18.0,36,0.00,,,0.00,801.000000,,2013-04-05 16:43:00,
2013-04-05 12:53:00,47.0,21.0,-100.00,NNW,346,9.0,18.0,36,0.00,,,0.00,801.000000,,2013-04-05 16:53:00,
2013-04-05 13:03:00,47.0,21.0,-100.00,NNW,346,9.0,18.0,36,0.00,,,0.00,801.000000,,2013-04-05 17:03:00,
2013-04-05 13:33:00,50.0,22.0,-100.00,NNW,340,7.0,21.0,33,0.00,,,0.00,850.000000,,2013-04-05 17:33:00,
2013-04-05 13:46:00,50.0,22.0,-100.00,NNW,340,7.0,21.0,33,0.00,,,0.00,850.000000,,2013-04-05 17:46:00,
2013-04-05 13:53:00,50.0,22.0,-100.00,NNW,340,7.0,21.0,33,0.00,,,0.00,850.000000,,2013-04-05 17:53:00,
2013-04-05 14:02:00,50.0,22.0,-100.00,NNW,340,7.0,21.0,33,0.00,,,0.00,850.000000,,2013-04-05 18:02:00,
2013-04-05 14:34:00,51.0,19.0,-100.00,NNW,346,8.0,21.0,28,0.00,,,0.00,853.000000,,2013-04-05 18:34:00,
2013-04-05 14:43:00,51.0,19.0,-100.00,NNW,346,8.0,21.0,28,0.00,,,0.00,853.000000,,2013-04-05 18:43:00,
2013-04-05 14:53:00,51.0,19.0,-100.00,NNW,346,8.0,21.0,28,0.00,,,0.00,853.000000,,2013-04-05 18:53:00,
2013-04-05 15:02:00,51.0,19.0,-100.00,NNW,346,8.0,21.0,28,0.00,,,0.00,853.000000,,2013-04-05 19:02:00,
2013-04-05 15:33:00,50.0,14.0,-100.00,NNW,332,9.0,24.0,23,0.00,,,0.00,775.000000,,2013-04-05 19:33:00,
2013-04-05 15:43:00,50.0,14.0,-100.00,NNW,332,9.0,24.0,23,0.00,,,0.00,775.000000,,2013-04-05 19:43:00,
2013-04-05 15:53:00,50.0,14.0,-100.00,NNW,332,9.0,24.0,23,0.00,,,0.00,775.000000,,2013-04-05 19:53:00,
2013-04-05 16:03:00,50.0,14.0,-100.00,NNW,332,9.0,24.0,23,0.00,,,0.00,775.000000,,2013-04-05 20:03:00,
2013-04-05 16:33:00,49.0,16.0,-100.00,NW,308,9.0,20.0,26,0.00,,,0.00,647.000000,,2013-04-05 20:33:00,
2013-04-05 16:43:00,49.0,16.0,-100.00,NW,308,9.0,20.0,26,0.00,,,0.00,647.000000,,2013-04-05 20:43:00,
2013-04-05 16:53:00,49.0,16.0,-100.00,NW,308,9.0,20.0,26,0.00,,,0.00,647.000000,,2013-04-05 20:53:00,
2013-04-05 17:02:00,49.0,16.0,-100.00,NW,308,9.0,20.0,26,0.00,,,0.00,647.000000,,2013-04-05 21:02:00,
2013-04-05 17:34:00,47.0,13.0,-100.00,North,359,9.0,22.0,25,0.00,,,0.00,481.000000,,2013-04-05 21:34:00,
2013-04-05 17:44:00,47.0,13.0,-100.00,North,359,9.0,22.0,25,0.00,,,0.00,481.000000,,2013-04-05 21:44:00,
2013-04-05 17:55:00,47.0,13.0,-100.00,North,359,9.0,22.0,25,0.00,,,0.00,481.000000,,2013-04-05 21:55:00,
2013-04-05 18:44:00,44.0,10.0,-100.00,NNW,332,9.0,19.0,25,0.00,,,0.00,289.000000,,2013-04-05 22:44:00,
2013-04-05 18:53:00,44.0,10.0,-100.00,NNW,332,9.0,19.0,25,0.00,,,0.00,289.000000,,2013-04-05 22:53:00,
2013-04-05 19:03:00,44.0,10.0,-100.00,NNW,332,9.0,19.0,25,0.00,,,0.00,289.000000,,2013-04-05 23:03:00,
2013-04-05 19:33:00,40.0,10.0,-100.00,NNW,337,8.0,18.0,29,0.00,,,0.00,106.000000,,2013-04-05 23:33:00,
2013-04-05 19:43:00,40.0,10.0,-100.00,NNW,337,8.0,18.0,29,0.00,,,0.00,106.000000,,2013-04-05 23:43:00,
2013-04-05 19:53:00,40.0,10.0,-100.00,NNW,337,8.0,18.0,29,0.00,,,0.00,106.000000,,2013-04-05 23:53:00,
2013-04-05 20:03:00,40.0,10.0,-100.00,NNW,337,8.0,18.0,29,0.00,,,0.00,106.000000,,2013-04-06 00:03:00,
2013-04-05 20:33:00,35.0,15.0,-100.00,North,356,7.0,17.0,43,0.00,,,0.00,10.000000,,2013-04-06 00:33:00,
2013-04-05 20:43:00,35.0,15.0,-100.00,North,356,7.0,17.0,43,0.00,,,0.00,10.000000,,2013-04-06 00:43:00,
2013-04-05 20:53:00,35.0,15.0,-100.00,North,356,7.0,17.0,43,0.00,,,0.00,10.000000,,2013-04-06 00:53:00,
2013-04-05 21:02:00,35.0,15.0,-100.00,North,356,7.0,17.0,43,0.00,,,0.00,10.000000,,2013-04-06 01:02:00,
2013-04-05 21:33:00,32.0,15.0,-100.00,North,349,5.0,12.0,50,0.00,,,0.00,0.000000,,2013-04-06 01:33:00,
2013-04-05 21:43:00,32.0,15.0,-100.00,North,349,5.0,12.0,50,0.00,,,0.00,0.000000,,2013-04-06 01:43:00,
2013-04-05 21:53:00,32.0,15.0,-100.00,North,349,5.0,12.0,50,0.00,,,0.00,0.000000,,2013-04-06 01:53:00,
2013-04-05 22:02:00,32.0,15.0,-100.00,North,349,5.0,12.0,50,0.00,,,0.00,0.000000,,2013-04-06 02:02:00,
2013-04-05 22:33:00,30.0,16.0,-100.00,NNW,343,5.0,12.0,56,0.00,,,0.00,0.000000,,2013-04-06 02:33:00,
2013-04-05 22:43:00,30.0,16.0,-100.00,NNW,343,5.0,12.0,56,0.00,,,0.00,0.000000,,2013-04-06 02:43:00,
2013-04-05 22:53:00,30.0,16.0,-100.00,NNW,343,5.0,12.0,56,0.00,,,0.00,0.000000,,2013-04-06 02:53:00,
2013-04-05 23:03:00,30.0,16.0,-100.00,NNW,343,5.0,12.0,56,0.00,,,0.00,0.000000,,2013-04-06 03:03:00,
2013-04-05 23:34:00,28.0,16.0,-100.00,North,349,4.0,14.0,59,0.00,,,0.00,0.000000,,2013-04-06 03:34:00,
2013-04-05 23:43:00,28.0,16.0,-100.00,North,349,4.0,14.0,59,0.00,,,0.00,0.000000,,2013-04-06 03:43:00,
2013-04-05 23:55:00,28.0,16.0,-100.00,North,349,4.0,14.0,59,0.00,,,0.00,0.000000,,2013-04-06 03:55:00,